Weather Roundup
Issued by NWS Chicago, IL

Home | Current Version | Previous Version | Graphics & Text | Print | Product List | Glossary On
Versions: 1 2 3 4 5 6 7 8 9 10 11 12 13 14 15 16 17 18 19 20 21 22 23 24 25 26 27 28 29 30 31 32 33 34 35 36 37 38 39 40 41 42 43 44 45 46 47 48 49 50
000
NZUS59 KLOT 262204
HRRLOT

CHICAGO AREA WEATHER ROUNDUP
NATIONAL WEATHER SERVICE CHICAGO/ROMEOVILLE IL
500 PM CDT FRI MAY 26 2017

NOTE: "FAIR" INDICATES FEW OR NO CLOUDS BELOW 12,000 FEET WITH NO
SIGNIFICANT WEATHER AND/OR OBSTRUCTIONS TO VISIBILITY.

* THESE STATIONS ARE NOT UNDER NWS QUALITY CONTROL. THEY ALSO MAY NOT
  REPORT WEATHER SUCH AS PRECIPITATION OR FOG.

ILZ005-006-012>014-019>023-262300-
NORTHEAST ILLINOIS

CITY           SKY/WX    TMP DP  RH WIND       PRES   REMARKS
OHARE          RAIN      58  54  86 NE14      29.79F FOG
MIDWAY         LGT RAIN  60  55  83 E14       29.80S
AURORA         RAIN      63  61  93 E15       29.78S VSB 1
LANSING*       RAIN      61  59  94 NE8       29.80F
JOLIET*        CLOUDY    66  64  94 E7        29.77F
WAUKEGAN       LGT RAIN  55  54  96 NE7       29.83F FOG
DUPAGE AIRPORT HVY RAIN  60  59  96 NE14      29.79S FOG
WHEELING       RAIN      55  54  96 NE7       29.83F FOG
KANKAKEE*      RAIN      65  62  92 SE13G21   29.75F
MORRIS*        CLOUDY    65  62  89 CALM      29.76S
LEWIS AIRPORT* LGT RAIN  62  62  99 E15       29.77F
NORTHERLY ISL    N/A     56  51  84 N10         N/A
$$

WIZ051-052-058>065-066-070>072-262300-
SOUTHEAST WISCONSIN

CITY           SKY/WX    TMP DP  RH WIND       PRES   REMARKS
MILWAUKEE      LGT RAIN  60  55  83 SE5       29.86S
KENOSHA*       RAIN      57  54  89 NE7       29.85S FOG
RACINE*        LGT RAIN  58  53  84 E5        29.87S
WAUKESHA       LGT RAIN  59  54  82 SE9       29.86R
$$

INZ001>003-010>013-019-020-262300-
NORTHWEST INDIANA

CITY           SKY/WX    TMP DP  RH WIND       PRES   REMARKS
GARY*          LGT RAIN  61  54  77 NE9       29.81S
MICHIGAN CITY* NOT AVBL
RENSSELAER*    NOT AVBL
VALPARAISO     LGT RAIN  70  59  68 SE6       29.81F
$$

LMZ740>746-262300-
SOUTHERN LAKE MICHIGAN

STATION/POSITION TIME  SKY/WX   TEMP WIND        PRES    VSBY
                                AIR  DIR/SP/G
                 (UTC)          (F)  (DEG/KT/KT) (MB)    (MI)
HARRISON CRIB    2140            56   40/  8/ 10   N/A
BURNHAM HARBOR   2200            56   10/  7/ 11   N/A
CALUMET HARBOR   2130            57   50/  7/ 10 1009.0R
BURNS HARBOR     2140            57   70/ 12/ 14 1009.8F
MICHIGAN CITY    2140            57   50/ 16/ 17   N/A
$$

ABBREVIATIONS USED IN REMARKS
   TC - TEMPERATURE IN CELSIUS
  WCI - WIND CHILL INDEX
   HX - HEAT INDEX
  VSB - VISIBILITY
$$




USA.gov is the U.S. government's official web portal to all federal, state and local government web resources and services.